| time (UTC) | temp F | wind direction | speed MPH | gust MPH | rain 1hr in | rain 24hr in | rain mn in | humidity % | barometer mb |
| 20260901213505 | 95 | 26 | 5.0 | 12.0 | 0.00 | 0.00 | 0.00 | 41 | 1017.2 |
| 20260901213004 | 95 | 117 | 6.0 | 12.0 | 0.00 | 0.00 | 0.00 | 41 | 1017.1 |
| 20260901212502 | 95 | 96 | 6.0 | 12.0 | 0.00 | 0.00 | 0.00 | 41 | 1017.0 |
| 20260901212005 | 95 | 134 | 2.0 | 11.0 | 0.00 | 0.00 | 0.00 | 37 | 1017.0 |
| 20260901211509 | 95 | 127 | 5.0 | 10.0 | 0.00 | 0.00 | 0.00 | 36 | 1017.1 |
| 20260901211001 | 95 | 111 | 3.0 | 8.0 | 0.00 | 0.00 | 0.00 | 35 | 1017.1 |
| 20260901210504 | 95 | 108 | 4.0 | 11.0 | 0.00 | 0.00 | 0.00 | 36 | 1017.3 |
| 20260901210003 | 95 | 59 | 2.0 | 12.0 | 0.00 | 0.00 | 0.00 | 37 | 1017.2 |
| 20260901205503 | 95 | 59 | 5.0 | 12.0 | 0.00 | 0.00 | 0.00 | 37 | 1017.3 |
| 20260901205003 | 95 | 96 | 4.0 | 9.0 | 0.00 | 0.00 | 0.00 | 35 | 1017.3 |
| 20260901204504 | 95 | 91 | 4.0 | 9.0 | 0.00 | 0.00 | 0.00 | 37 | 1017.3 |
| 20260901204003 | 95 | 155 | 3.0 | 10.0 | 0.00 | 0.00 | 0.00 | 38 | 1017.4 |
| 20260901203503 | 95 | 134 | 3.0 | 13.0 | 0.00 | 0.00 | 0.00 | 38 | 1017.5 |
| 20260901203016 | 95 | 150 | 8.0 | 13.0 | 0.00 | 0.00 | 0.00 | 37 | 1017.6 |
| 20260901202504 | 95 | 113 | 6.0 | 11.0 | 0.00 | 0.00 | 0.00 | 37 | 1017.6 |
| 20260901202002 | 95 | 85 | 6.0 | 11.0 | 0.00 | 0.00 | 0.00 | 38 | 1017.7 |
| 20260901201510 | 95 | 85 | 4.0 | 9.0 | 0.00 | 0.00 | 0.00 | 38 | 1017.8 |
| 20260901201003 | 95 | 122 | 3.0 | 9.0 | 0.00 | 0.00 | 0.00 | 40 | 1017.7 |
| 20260901200513 | 94 | 62 | 3.0 | 11.0 | 0.00 | 0.00 | 0.00 | 40 | 1017.7 |
| 20260901200007 | 94 | 116 | 4.0 | 12.0 | 0.00 | 0.00 | 0.00 | 40 | 1017.9 |
| 20260901195503 | 95 | 136 | 7.0 | 12.0 | 0.00 | 0.00 | 0.00 | 39 | 1017.9 |
| 20260901195002 | 95 | 109 | 5.0 | 11.0 | 0.00 | 0.00 | 0.00 | 41 | 1018.0 |
| 20260901194504 | 94 | 320 | 1.0 | 3.0 | 0.00 | 0.00 | 0.00 | 41 | 1018.0 |
| 20260901194002 | 93 | 160 | 1.0 | 7.0 | 0.00 | 0.00 | 0.00 | 42 | 1018.1 |
| 20260901193503 | 93 | 96 | 3.0 | 9.0 | 0.00 | 0.00 | 0.00 | 42 | 1018.1 |
| 20260901193004 | 94 | 55 | 6.0 | 13.0 | 0.00 | 0.00 | 0.00 | 41 | 1018.2 |
| 20260901192504 | 94 | 104 | 7.0 | 13.0 | 0.00 | 0.00 | 0.00 | 42 | 1018.2 |
| 20260901192003 | 94 | 48 | 6.0 | 11.0 | 0.00 | 0.00 | 0.00 | 42 | 1018.2 |
| 20260901191507 | 94 | 30 | 4.0 | 10.0 | 0.00 | 0.00 | 0.00 | 44 | 1018.3 |
| 20260901191014 | 93 | 86 | 4.0 | 10.0 | 0.00 | 0.00 | 0.00 | 43 | 1018.4 |
| 20260901190507 | 93 | 71 | 5.0 | 11.0 | 0.00 | 0.00 | 0.00 | 44 | 1018.5 |
| 20260901190007 | 94 | 76 | 7.0 | 16.0 | 0.00 | 0.00 | 0.00 | 43 | 1018.6 |
| 20260901185508 | 95 | 37 | 8.0 | 16.0 | 0.00 | 0.00 | 0.00 | 42 | 1018.5 |
| 20260901185002 | 95 | 115 | 3.0 | 9.0 | 0.00 | 0.00 | 0.00 | 41 | 1018.6 |
| 20260901184504 | 95 | 125 | 5.0 | 9.0 | 0.00 | 0.00 | 0.00 | 41 | 1018.8 |
| 20260901184003 | 94 | 115 | 4.0 | 10.0 | 0.00 | 0.00 | 0.00 | 42 | 1018.9 |
| 20260901183504 | 94 | 122 | 3.0 | 10.0 | 0.00 | 0.00 | 0.00 | 45 | 1018.9 |
| 20260901183018 | 94 | 153 | 2.0 | 10.0 | 0.00 | 0.00 | 0.00 | 45 | 1019.0 |
| 20260901182503 | 93 | 90 | 5.0 | 10.0 | 0.00 | 0.00 | 0.00 | 44 | 1018.9 |
| 20260901182003 | 93 | 67 | 6.0 | 10.0 | 0.00 | 0.00 | 0.00 | 45 | 1019.0 |
| 20260901181506 | 93 | 121 | 5.0 | 10.0 | 0.00 | 0.00 | 0.00 | 48 | 1019.0 |
| 20260901181003 | 93 | 135 | 5.0 | 10.0 | 0.00 | 0.00 | 0.00 | 46 | 1019.0 |
| 20260901180504 | 92 | 26 | 3.0 | 8.0 | 0.00 | 0.00 | 0.00 | 47 | 1019.1 |
| 20260901180012 | 92 | 125 | 5.0 | 8.0 | 0.00 | 0.00 | 0.00 | 45 | 1019.1 |
| 20260901175505 | 92 | 82 | 4.0 | 8.0 | 0.00 | 0.00 | 0.00 | 46 | 1019.2 |
| 20260901175008 | 93 | 132 | 3.0 | 8.0 | 0.00 | 0.00 | 0.00 | 45 | 1019.3 |
| 20260901174508 | 92 | 141 | 1.0 | 8.0 | 0.00 | 0.00 | 0.00 | 51 | 1019.3 |
| 20260901174004 | 92 | 98 | 4.0 | 9.0 | 0.00 | 0.00 | 0.00 | 46 | 1019.4 |
| 20260901173507 | 92 | 194 | 5.0 | 9.0 | 0.00 | 0.00 | 0.00 | 46 | 1019.5 |
| 20260901173006 | 92 | 176 | 5.0 | 8.0 | 0.00 | 0.00 | 0.00 | 47 | 1019.6 |
| 20260901172506 | 92 | 240 | 5.0 | 10.0 | 0.00 | 0.00 | 0.00 | 46 | 1019.7 |
| 20260901172003 | 92 | 32 | 7.0 | 10.0 | 0.00 | 0.00 | 0.00 | 49 | 1019.8 |
| 20260901171504 | 92 | 213 | 2.0 | 9.0 | 0.00 | 0.00 | 0.00 | 49 | 1019.8 |
| 20260901171003 | 92 | 148 | 5.0 | 9.0 | 0.00 | 0.00 | 0.00 | 50 | 1019.9 |
| 20260901170505 | 92 | 48 | 3.0 | 8.0 | 0.00 | 0.00 | 0.00 | 48 | 1019.9 |
| 20260901170003 | 92 | 82 | 3.0 | 5.0 | 0.00 | 0.00 | 0.00 | 51 | 1019.9 |
| 20260901165508 | 92 | 317 | 2.0 | 5.0 | 0.00 | 0.00 | 0.00 | 50 | 1019.9 |
| 20260901165003 | 91 | 51 | 2.0 | 4.0 | 0.00 | 0.00 | 0.00 | 51 | 1019.9 |
| 20260901164514 | 91 | 284 | 2.0 | 8.0 | 0.00 | 0.00 | 0.00 | 52 | 1019.9 |
| 20260901164008 | 91 | 107 | 5.0 | 8.0 | 0.00 | 0.00 | 0.00 | 51 | 1020.0 |
| 20260901163504 | 91 | 208 | 4.0 | 7.0 | 0.00 | 0.00 | 0.00 | 50 | 1020.1 |
| 20260901163021 | 91 | 324 | 0.0 | 5.0 | 0.00 | 0.00 | 0.00 | 53 | 1020.1 |
| 20260901162509 | 91 | 324 | 2.0 | 9.0 | 0.00 | 0.00 | 0.00 | 52 | 1020.2 |
| 20260901162004 | 90 | 88 | 5.0 | 9.0 | 0.00 | 0.00 | 0.00 | 53 | 1020.3 |
| 20260901161516 | 90 | 53 | 5.0 | 9.0 | 0.00 | 0.00 | 0.00 | 54 | 1020.3 |
| 20260901161004 | 90 | 62 | 6.0 | 8.0 | 0.00 | 0.00 | 0.00 | 56 | 1020.3 |
| 20260901160504 | 90 | 29 | 3.0 | 5.0 | 0.00 | 0.00 | 0.00 | 57 | 1020.3 |
| 20260901160007 | 90 | 44 | 1.0 | 4.0 | 0.00 | 0.00 | 0.00 | 55 | 1020.3 |
| 20260901155504 | 90 | 58 | 2.0 | 9.0 | 0.00 | 0.00 | 0.00 | 54 | 1020.4 |
| 20260901155007 | 90 | 97 | 3.0 | 9.0 | 0.00 | 0.00 | 0.00 | 56 | 1020.4 |
| 20260901154512 | 90 | 83 | 3.0 | 9.0 | 0.00 | 0.00 | 0.00 | 59 | 1020.5 |
| 20260901154006 | 90 | 14 | 3.0 | 7.0 | 0.00 | 0.00 | 0.00 | 56 | 1020.4 |
| 20260901153507 | 89 | 130 | 3.0 | 7.0 | 0.00 | 0.00 | 0.00 | 59 | 1020.5 |
| 20260901153020 | 89 | 57 | 3.0 | 6.0 | 0.00 | 0.00 | 0.00 | 59 | 1020.6 |
| 20260901152512 | 89 | 75 | 2.0 | 5.0 | 0.00 | 0.00 | 0.00 | 56 | 1020.6 |
| 20260901152007 | 89 | 78 | 2.0 | 5.0 | 0.00 | 0.00 | 0.00 | 60 | 1020.6 |
| 20260901151508 | 89 | 36 | 2.0 | 5.0 | 0.00 | 0.00 | 0.00 | 60 | 1020.6 |
| 20260901151013 | 88 | 224 | 1.0 | 5.0 | 0.00 | 0.00 | 0.00 | 60 | 1020.6 |
| 20260901150509 | 88 | 133 | 2.0 | 5.0 | 0.00 | 0.00 | 0.00 | 63 | 1020.6 |
| 20260901150029 | 88 | 23 | 2.0 | 5.0 | 0.00 | 0.00 | 0.00 | 63 | 1020.6 |
| 20260901145503 | 88 | 151 | 1.0 | 4.0 | 0.00 | 0.00 | 0.00 | 63 | 1020.6 |
| 20260901145007 | 88 | 45 | 2.0 | 4.0 | 0.00 | 0.00 | 0.00 | 64 | 1020.7 |
| 20260901144509 | 87 | 80 | 1.0 | 3.0 | 0.00 | 0.00 | 0.00 | 64 | 1020.7 |
| 20260901144010 | 87 | 124 | 2.0 | 3.0 | 0.00 | 0.00 | 0.00 | 64 | 1020.7 |
| 20260901143504 | 86 | 49 | 1.0 | 3.0 | 0.00 | 0.00 | 0.00 | 67 | 1020.7 |
| 20260901143002 | 86 | 246 | 1.0 | 3.0 | 0.00 | 0.00 | 0.00 | 67 | 1020.6 |
| 20260901142506 | 86 | 44 | 1.0 | 3.0 | 0.00 | 0.00 | 0.00 | 66 | 1020.6 |
| 20260901142002 | 86 | 74 | 0.0 | 3.0 | 0.00 | 0.00 | 0.00 | 68 | 1020.6 |
| 20260901141503 | 86 | 59 | 2.0 | 3.0 | 0.00 | 0.00 | 0.00 | 68 | 1020.7 |
| 20260901141001 | 86 | 96 | 2.0 | 3.0 | 0.00 | 0.00 | 0.00 | 69 | 1020.7 |
| 20260901140502 | 86 | 113 | 1.0 | 3.0 | 0.00 | 0.00 | 0.00 | 69 | 1020.7 |
| 20260901140004 | 85 | 75 | 2.0 | 3.0 | 0.00 | 0.00 | 0.00 | 71 | 1020.6 |
| 20260901135503 | 85 | 67 | 1.0 | 3.0 | 0.00 | 0.00 | 0.00 | 71 | 1020.5 |
| 20260901135003 | 84 | 67 | 2.0 | 3.0 | 0.00 | 0.00 | 0.00 | 71 | 1020.5 |
| 20260901134503 | 84 | 75 | 2.0 | 3.0 | 0.00 | 0.00 | 0.00 | 73 | 1020.4 |
| 20260901134002 | 84 | 51 | 1.0 | 3.0 | 0.00 | 0.00 | 0.00 | 75 | 1020.5 |
| 20260901133502 | 83 | 80 | 2.0 | 3.0 | 0.00 | 0.00 | 0.00 | 74 | 1020.5 |
| 20260901133006 | 83 | 65 | 2.0 | 3.0 | 0.00 | 0.00 | 0.00 | 74 | 1020.5 |
| 20260901132502 | 82 | 90 | 2.0 | 3.0 | 0.00 | 0.00 | 0.00 | 75 | 1020.6 |
| 20260901132002 | 82 | 67 | 2.0 | 3.0 | 0.00 | 0.00 | 0.00 | 76 | 1020.6 |
| 20260901131507 | 81 | 67 | 1.0 | 2.0 | 0.00 | 0.00 | 0.00 | 78 | 1020.5 |
| 20260901131003 | 81 | 97 | 0.0 | 2.0 | 0.00 | 0.00 | 0.00 | 78 | 1020.6 |
| 20260901130502 | 80 | 97 | 1.0 | 2.0 | 0.00 | 0.00 | 0.00 | 79 | 1020.6 |
| 20260901130003 | 79 | 101 | 1.0 | 2.0 | 0.00 | 0.00 | 0.00 | 81 | 1020.5 |
| 20260901125502 | 78 | 101 | 0.0 | 1.0 | 0.00 | 0.00 | 0.00 | 83 | 1020.5 |
| 20260901125003 | 77 | 342 | 0.0 | 3.0 | 0.00 | 0.00 | 0.00 | 85 | 1020.5 |
| 20260901124505 | 76 | 101 | 2.0 | 3.0 | 0.00 | 0.00 | 0.00 | 86 | 1020.4 |
| 20260901124002 | 76 | 105 | 1.0 | 3.0 | 0.00 | 0.00 | 0.00 | 88 | 1020.4 |
| 20260901123502 | 75 | 127 | 1.0 | 3.0 | 0.00 | 0.00 | 0.00 | 89 | 1020.3 |
| 20260901123008 | 74 | 112 | 2.0 | 3.0 | 0.00 | 0.00 | 0.00 | 90 | 1020.3 |
| 20260901122502 | 73 | 123 | 1.0 | 3.0 | 0.00 | 0.00 | 0.00 | 91 | 1020.3 |
| 20260901122003 | 72 | 119 | 2.0 | 3.0 | 0.00 | 0.00 | 0.00 | 93 | 1020.2 |
| 20260901121503 | 72 | 66 | 1.0 | 4.0 | 0.00 | 0.00 | 0.00 | 93 | 1020.1 |
| 20260901121003 | 71 | 74 | 2.0 | 4.0 | 0.00 | 0.00 | 0.00 | 93 | 1020.1 |
| 20260901120504 | 71 | 74 | 2.0 | 2.0 | 0.00 | 0.00 | 0.00 | 92 | 1020.1 |
| 20260901120005 | 70 | 74 | 2.0 | 2.0 | 0.00 | 0.00 | 0.00 | 92 | 1020.1 |
| 20260901115502 | 70 | 74 | 0.0 | 1.0 | 0.00 | 0.00 | 0.00 | 92 | 1020.0 |
| 20260901115004 | 70 | 74 | 0.0 | 1.0 | 0.00 | 0.00 | 0.00 | 92 | 1019.8 |
| 20260901114503 | 70 | 74 | 0.0 | 2.0 | 0.00 | 0.00 | 0.00 | 92 | 1019.7 |
| 20260901114003 | 70 | 74 | 1.0 | 2.0 | 0.00 | 0.00 | 0.00 | 92 | 1019.5 |
| 20260901113505 | 70 | 74 | 1.0 | 2.0 | 0.00 | 0.00 | 0.00 | 92 | 1019.5 |
| 20260901113004 | 70 | 74 | 1.0 | 3.0 | 0.00 | 0.00 | 0.00 | 91 | 1019.4 |
| 20260901112503 | 70 | 74 | 2.0 | 3.0 | 0.00 | 0.00 | 0.00 | 91 | 1019.3 |
| 20260901112003 | 70 | 79 | 2.0 | 3.0 | 0.00 | 0.00 | 0.00 | 91 | 1019.3 |
| 20260901111505 | 70 | 121 | 2.0 | 2.0 | 0.00 | 0.00 | 0.00 | 91 | 1019.3 |
| 20260901111004 | 70 | 121 | 1.0 | 2.0 | 0.00 | 0.00 | 0.00 | 91 | 1019.3 |
| 20260901110503 | 70 | 121 | 0.0 | 2.0 | 0.00 | 0.00 | 0.00 | 91 | 1019.3 |
| 20260901110007 | 70 | 138 | 0.0 | 1.0 | 0.00 | 0.00 | 0.00 | 91 | 1019.3 |
| 20260901105503 | 70 | 138 | 0.0 | 1.0 | 0.00 | 0.00 | 0.00 | 91 | 1019.2 |
| 20260901105005 | 70 | 138 | 0.0 | 2.0 | 0.00 | 0.00 | 0.00 | 91 | 1019.1 |
| 20260901104503 | 70 | 138 | 0.0 | 2.0 | 0.00 | 0.00 | 0.00 | 91 | 1019.0 |
| 20260901104003 | 70 | 138 | 0.0 | 2.0 | 0.00 | 0.00 | 0.00 | 91 | 1018.9 |
| 20260901103503 | 70 | 138 | 0.0 | 0.0 | 0.00 | 0.00 | 0.00 | 91 | 1018.9 |
| 20260901103003 | 70 | 138 | 0.0 | 0.0 | 0.00 | 0.00 | 0.00 | 90 | 1018.9 |
| 20260901102505 | 70 | 138 | 0.0 | 0.0 | 0.00 | 0.00 | 0.00 | 91 | 1018.9 |
| 20260901102003 | 71 | 138 | 0.0 | 0.0 | 0.00 | 0.00 | 0.00 | 91 | 1018.9 |
| 20260901101509 | 71 | 138 | 0.0 | 2.0 | 0.00 | 0.00 | 0.00 | 91 | 1018.9 |
| 20260901101004 | 71 | 138 | 0.0 | 2.0 | 0.00 | 0.00 | 0.00 | 91 | 1018.9 |
| 20260901100504 | 71 | 138 | 0.0 | 1.0 | 0.00 | 0.00 | 0.00 | 91 | 1018.9 |
| 20260901100006 | 71 | 138 | 0.0 | 1.0 | 0.00 | 0.00 | 0.00 | 91 | 1018.8 |
| 20260901095503 | 71 | 138 | 0.0 | 1.0 | 0.00 | 0.00 | 0.00 | 91 | 1018.8 |
| 20260901095004 | 71 | 138 | 0.0 | 2.0 | 0.00 | 0.00 | 0.00 | 91 | 1018.8 |
| 20260901094507 | 71 | 138 | 0.0 | 2.0 | 0.00 | 0.00 | 0.00 | 90 | 1018.8 |
| 20260901094004 | 71 | 138 | 0.0 | 2.0 | 0.00 | 0.00 | 0.00 | 90 | 1018.7 |
| 20260901093503 | 71 | 138 | 0.0 | 2.0 | 0.00 | 0.00 | 0.00 | 90 | 1018.7 |
| 20260901093003 | 71 | 138 | 1.0 | 2.0 | 0.00 | 0.00 | 0.00 | 90 | 1018.8 |
| 20260901092503 | 71 | 136 | 1.0 | 2.0 | 0.00 | 0.00 | 0.00 | 90 | 1018.7 |
| 20260901092004 | 71 | 109 | 0.0 | 2.0 | 0.00 | 0.00 | 0.00 | 90 | 1018.7 |
| 20260901091507 | 71 | 109 | 0.0 | 2.0 | 0.00 | 0.00 | 0.00 | 90 | 1018.6 |
| 20260901091004 | 71 | 119 | 0.0 | 2.0 | 0.00 | 0.00 | 0.00 | 90 | 1018.6 |
| 20260901090504 | 71 | 119 | 1.0 | 3.0 | 0.00 | 0.00 | 0.00 | 90 | 1018.6 |
| 20260901090013 | 71 | 124 | 2.0 | 3.0 | 0.00 | 0.00 | 0.00 | 90 | 1018.5 |
| 20260901085507 | 71 | 115 | 1.0 | 3.0 | 0.00 | 0.00 | 0.00 | 90 | 1018.7 |
| 20260901085003 | 71 | 126 | 2.0 | 2.0 | 0.00 | 0.00 | 0.00 | 90 | 1018.7 |
| 20260901084507 | 71 | 126 | 1.0 | 2.0 | 0.00 | 0.00 | 0.00 | 90 | 1018.6 |
| 20260901084007 | 71 | 126 | 2.0 | 2.0 | 0.00 | 0.00 | 0.00 | 90 | 1018.5 |
| 20260901083506 | 72 | 126 | 1.0 | 2.0 | 0.00 | 0.00 | 0.00 | 90 | 1018.5 |
| 20260901083012 | 72 | 251 | 0.0 | 2.0 | 0.00 | 0.00 | 0.00 | 89 | 1018.6 |
| 20260901082505 | 72 | 146 | 0.0 | 2.0 | 0.00 | 0.00 | 0.00 | 89 | 1018.6 |
| 20260901082008 | 72 | 107 | 1.0 | 2.0 | 0.00 | 0.00 | 0.00 | 89 | 1018.5 |
| 20260901081512 | 72 | 117 | 1.0 | 2.0 | 0.00 | 0.00 | 0.00 | 89 | 1018.6 |
| 20260901081004 | 72 | 117 | 0.0 | 2.0 | 0.00 | 0.00 | 0.00 | 89 | 1018.5 |
| 20260901080507 | 72 | 118 | 0.0 | 2.0 | 0.00 | 0.00 | 0.00 | 89 | 1018.4 |
| 20260901080012 | 72 | 117 | 1.0 | 2.0 | 0.00 | 0.00 | 0.00 | 89 | 1018.3 |
| 20260901075507 | 72 | 119 | 0.0 | 2.0 | 0.00 | 0.00 | 0.00 | 89 | 1018.3 |
| 20260901075006 | 72 | 118 | 0.0 | 2.0 | 0.00 | 0.00 | 0.00 | 89 | 1018.2 |
| 20260901074512 | 72 | 118 | 1.0 | 2.0 | 0.00 | 0.00 | 0.00 | 89 | 1018.2 |
| 20260901074003 | 72 | 117 | 1.0 | 2.0 | 0.00 | 0.00 | 0.00 | 89 | 1018.3 |
| 20260901073505 | 72 | 117 | 1.0 | 3.0 | 0.00 | 0.00 | 0.00 | 89 | 1018.4 |
| 20260901073019 | 72 | 106 | 2.0 | 3.0 | 0.00 | 0.00 | 0.00 | 88 | 1018.3 |
| 20260901072507 | 72 | 113 | 2.0 | 2.0 | 0.00 | 0.00 | 0.00 | 88 | 1018.2 |
| 20260901072006 | 72 | 57 | 1.0 | 2.0 | 0.00 | 0.00 | 0.00 | 87 | 1018.2 |
| 20260901071514 | 72 | 57 | 1.0 | 2.0 | 0.00 | 0.00 | 0.00 | 87 | 1018.2 |
| 20260901071007 | 72 | 57 | 0.0 | 2.0 | 0.00 | 0.00 | 0.00 | 87 | 1018.3 |
| 20260901070504 | 73 | 57 | 0.0 | 2.0 | 0.00 | 0.00 | 0.00 | 87 | 1018.4 |
| 20260901070007 | 73 | 57 | 0.0 | 2.0 | 0.00 | 0.00 | 0.00 | 86 | 1018.5 |
| 20260901065509 | 73 | 57 | 0.0 | 2.0 | 0.00 | 0.00 | 0.00 | 86 | 1018.5 |
| 20260901065003 | 73 | 57 | 1.0 | 2.0 | 0.00 | 0.00 | 0.00 | 86 | 1018.5 |
| 20260901064506 | 73 | 57 | 0.0 | 2.0 | 0.00 | 0.00 | 0.00 | 86 | 1018.4 |
| 20260901064002 | 73 | 57 | 1.0 | 3.0 | 0.00 | 0.00 | 0.00 | 86 | 1018.6 |
| 20260901063501 | 73 | 88 | 1.0 | 3.0 | 0.00 | 0.00 | 0.00 | 86 | 1018.6 |
| 20260901063003 | 73 | 70 | 2.0 | 3.0 | 0.00 | 0.00 | 0.00 | 85 | 1018.5 |
| 20260901062503 | 74 | 76 | 2.0 | 4.0 | 0.00 | 0.00 | 0.00 | 85 | 1018.6 |
| 20260901062003 | 74 | 94 | 2.0 | 4.0 | 0.00 | 0.00 | 0.00 | 85 | 1018.5 |
| 20260901061504 | 74 | 109 | 1.0 | 3.0 | 0.00 | 0.00 | 0.00 | 84 | 1018.5 |
| 20260901061004 | 74 | 121 | 2.0 | 3.0 | 0.00 | 0.00 | 0.00 | 84 | 1018.3 |
| 20260901060503 | 74 | 113 | 1.0 | 3.0 | 0.00 | 0.00 | 0.00 | 84 | 1018.3 |
| 20260901060011 | 74 | 110 | 2.0 | 3.0 | 0.00 | 0.00 | 0.00 | 84 | 1018.3 |
| 20260901055503 | 74 | 121 | 2.0 | 4.0 | 0.00 | 0.00 | 0.00 | 84 | 1018.2 |
| 20260901055003 | 74 | 115 | 2.0 | 4.0 | 0.00 | 0.00 | 0.00 | 84 | 1018.3 |
| 20260901054506 | 74 | 116 | 3.0 | 4.0 | 0.00 | 0.00 | 0.00 | 85 | 1018.4 |
| 20260901054003 | 73 | 106 | 2.0 | 3.0 | 0.00 | 0.00 | 0.00 | 85 | 1018.5 |
| 20260901053502 | 73 | 129 | 2.0 | 3.0 | 0.00 | 0.00 | 0.00 | 86 | 1018.5 |
| 20260901053003 | 73 | 117 | 1.0 | 2.0 | 0.00 | 0.00 | 0.00 | 86 | 1018.4 |
| 20260901052502 | 73 | 101 | 1.0 | 2.0 | 0.00 | 0.00 | 0.00 | 86 | 1018.5 |
| 20260901052002 | 73 | 142 | 0.0 | 3.0 | 0.00 | 0.00 | 0.00 | 85 | 1018.6 |
| 20260901051504 | 73 | 122 | 1.0 | 3.0 | 0.00 | 0.00 | 0.00 | 86 | 1018.5 |
| 20260901051004 | 74 | 101 | 2.0 | 3.0 | 0.00 | 0.00 | 0.00 | 86 | 1018.4 |
| 20260901050504 | 74 | 121 | 2.0 | 3.0 | 0.00 | 0.00 | 0.00 | 85 | 1018.5 |
| 20260901050004 | 74 | 127 | 2.0 | 3.0 | 0.00 | 0.00 | 0.00 | 85 | 1018.6 |
| 20260901045504 | 74 | 107 | 2.0 | 2.0 | 0.00 | 0.00 | 0.00 | 85 | 1018.6 |
| 20260901045004 | 74 | 107 | 2.0 | 2.0 | 0.00 | 0.00 | 0.00 | 85 | 1018.6 |
| 20260901044506 | 74 | 119 | 1.0 | 2.0 | 0.00 | 0.00 | 0.00 | 85 | 1018.5 |
| 20260901044007 | 74 | 127 | 1.0 | 3.0 | 0.00 | 0.00 | 0.00 | 85 | 1018.6 |
| 20260901043503 | 74 | 125 | 1.0 | 3.0 | 0.00 | 0.00 | 0.00 | 85 | 1018.6 |
| 20260901043018 | 74 | 128 | 2.0 | 2.0 | 0.00 | 0.00 | 0.00 | 85 | 1018.6 |
| 20260901042502 | 74 | 117 | 1.0 | 2.0 | 0.00 | 0.00 | 0.00 | 85 | 1018.6 |
| 20260901042002 | 74 | 117 | 1.0 | 2.0 | 0.00 | 0.00 | 0.00 | 85 | 1018.8 |
| 20260901041504 | 74 | 107 | 1.0 | 2.0 | 0.00 | 0.00 | 0.00 | 85 | 1018.9 |
| 20260901041004 | 74 | 107 | 1.0 | 2.0 | 0.00 | 0.00 | 0.00 | 85 | 1018.8 |
| 20260901040504 | 74 | 121 | 1.0 | 1.0 | 0.00 | 0.00 | 0.00 | 84 | 1018.7 |
| 20260901040007 | 75 | 121 | 0.0 | 2.0 | 0.00 | 0.00 | 0.00 | 84 | 1018.8 |
| 20260901035503 | 75 | 121 | 1.0 | 2.0 | 0.00 | 0.00 | 0.00 | 84 | 1018.9 |
| 20260901035003 | 75 | 112 | 1.0 | 2.0 | 0.00 | 0.00 | 0.00 | 84 | 1018.8 |
| 20260901034511 | 75 | 112 | 1.0 | 3.0 | 0.00 | 0.00 | 0.00 | 84 | 1018.8 |
| 20260901034003 | 75 | 112 | 1.0 | 3.0 | 0.00 | 0.00 | 0.00 | 84 | 1018.7 |
| 20260901033505 | 75 | 112 | 1.0 | 2.0 | 0.00 | 0.00 | 0.00 | 84 | 1018.8 |
| 20260901033009 | 75 | 111 | 1.0 | 2.0 | 0.00 | 0.00 | 0.00 | 83 | 1018.8 |
| 20260901032508 | 75 | 112 | 1.0 | 2.0 | 0.00 | 0.00 | 0.00 | 83 | 1018.9 |
| 20260901032009 | 75 | 112 | 1.0 | 3.0 | 0.00 | 0.00 | 0.00 | 83 | 1018.9 |
| 20260901031511 | 75 | 112 | 1.0 | 3.0 | 0.00 | 0.00 | 0.00 | 83 | 1019.0 |
| 20260901031011 | 75 | 112 | 2.0 | 3.0 | 0.00 | 0.00 | 0.00 | 83 | 1018.9 |
| 20260901030505 | 75 | 115 | 1.0 | 2.0 | 0.00 | 0.00 | 0.00 | 83 | 1018.9 |
| 20260901030003 | 75 | 111 | 1.0 | 2.0 | 0.00 | 0.00 | 0.00 | 82 | 1018.9 |
| 20260901025504 | 76 | 103 | 1.0 | 2.0 | 0.00 | 0.00 | 0.00 | 82 | 1019.0 |
| 20260901025006 | 76 | 113 | 1.0 | 2.0 | 0.00 | 0.00 | 0.00 | 81 | 1019.0 |
| 20260901024503 | 76 | 103 | 1.0 | 2.0 | 0.00 | 0.00 | 0.00 | 81 | 1019.1 |
| 20260901024006 | 76 | 122 | 1.0 | 2.0 | 0.00 | 0.00 | 0.00 | 80 | 1019.0 |
| 20260901023503 | 76 | 122 | 0.0 | 2.0 | 0.00 | 0.00 | 0.00 | 80 | 1019.0 |
| 20260901023008 | 77 | 122 | 0.0 | 2.0 | 0.00 | 0.00 | 0.00 | 79 | 1019.0 |
| 20260901022506 | 77 | 122 | 0.0 | 2.0 | 0.00 | 0.00 | 0.00 | 79 | 1018.9 |
| 20260901022005 | 77 | 122 | 0.0 | 2.0 | 0.00 | 0.00 | 0.00 | 78 | 1019.0 |
| 20260901021519 | 78 | 122 | 0.0 | 3.0 | 0.00 | 0.00 | 0.00 | 77 | 1019.0 |
| 20260901021004 | 78 | 92 | 2.0 | 3.0 | 0.00 | 0.00 | 0.00 | 77 | 1018.9 |
| 20260901020513 | 78 | 92 | 1.0 | 3.0 | 0.00 | 0.00 | 0.00 | 76 | 1019.0 |
| 20260901020012 | 78 | 85 | 2.0 | 4.0 | 0.00 | 0.00 | 0.00 | 76 | 1018.9 |
| 20260901015503 | 79 | 83 | 2.0 | 4.0 | 0.00 | 0.00 | 0.00 | 75 | 1018.9 |
| 20260901015002 | 79 | 88 | 2.0 | 4.0 | 0.00 | 0.00 | 0.00 | 75 | 1018.7 |
| 20260901014503 | 79 | 89 | 3.0 | 4.0 | 0.00 | 0.00 | 0.00 | 74 | 1018.6 |
| 20260901014004 | 79 | 82 | 2.0 | 4.0 | 0.00 | 0.00 | 0.00 | 74 | 1018.6 |
| 20260901013503 | 80 | 93 | 3.0 | 5.0 | 0.00 | 0.00 | 0.00 | 73 | 1018.5 |
| 20260901013011 | 80 | 85 | 3.0 | 5.0 | 0.00 | 0.00 | 0.00 | 73 | 1018.3 |
| 20260901012506 | 80 | 88 | 2.0 | 4.0 | 0.00 | 0.00 | 0.00 | 72 | 1018.1 |
| 20260901012006 | 80 | 89 | 2.0 | 4.0 | 0.00 | 0.00 | 0.00 | 72 | 1018.1 |
| 20260901011507 | 81 | 88 | 3.0 | 6.0 | 0.00 | 0.00 | 0.00 | 71 | 1018.1 |
| 20260901011007 | 81 | 87 | 3.0 | 6.0 | 0.00 | 0.00 | 0.00 | 72 | 1018.0 |
| 20260901010507 | 81 | 79 | 3.0 | 6.0 | 0.00 | 0.00 | 0.00 | 71 | 1017.9 |
| 20260901010004 | 81 | 83 | 3.0 | 5.0 | 0.00 | 0.00 | 0.00 | 71 | 1017.8 |
| 20260901005512 | 81 | 78 | 3.0 | 5.0 | 0.00 | 0.00 | 0.00 | 71 | 1017.9 |
| 20260901005007 | 82 | 74 | 3.0 | 5.0 | 0.00 | 0.00 | 0.00 | 70 | 1017.8 |
| 20260901004529 | 82 | 84 | 3.0 | 5.0 | 0.00 | 0.00 | 0.00 | 70 | 1017.8 |
| 20260901004013 | 82 | 67 | 3.0 | 5.0 | 0.00 | 0.00 | 0.00 | 69 | 1017.8 |
| 20260901003503 | 82 | 102 | 3.0 | 4.0 | 0.00 | 0.00 | 0.00 | 68 | 1017.8 |
| 20260901003003 | 83 | 84 | 3.0 | 4.0 | 0.00 | 0.00 | 0.00 | 68 | 1017.7 |
| 20260901002505 | 83 | 84 | 2.0 | 4.0 | 0.00 | 0.00 | 0.00 | 67 | 1017.6 |
| 20260901002005 | 84 | 86 | 2.0 | 4.0 | 0.00 | 0.00 | 0.00 | 65 | 1017.7 |
| 20260901001510 | 84 | 109 | 2.0 | 5.0 | 0.00 | 0.00 | 0.00 | 66 | 1017.7 |
| 20260901001008 | 84 | 84 | 2.0 | 6.0 | 0.00 | 0.00 | 0.00 | 64 | 1017.6 |
| 20260901000503 | 85 | 76 | 3.0 | 6.0 | 0.00 | 0.00 | 0.00 | 64 | 1017.6 |
| 20260901000021 | 85 | 92 | 3.0 | 6.0 | 0.00 | 0.00 | 0.00 | 64 | 1017.7 |
| 20260831235503 | 86 | 71 | 3.0 | 6.0 | 0.00 | 0.00 | 0.00 | 63 | 1017.7 |
| 20260831235006 | 86 | 78 | 2.0 | 4.0 | 0.00 | 0.00 | 0.00 | 63 | 1017.7 |
| 20260831234510 | 87 | 94 | 1.0 | 4.0 | 0.00 | 0.00 | 0.00 | 62 | 1017.7 |
| 20260831234003 | 87 | 123 | 1.0 | 4.0 | 0.00 | 0.00 | 0.00 | 59 | 1017.7 |
| 20260831233507 | 88 | 109 | 2.0 | 4.0 | 0.00 | 0.00 | 0.00 | 59 | 1017.7 |
| 20260831233006 | 88 | 92 | 2.0 | 7.0 | 0.00 | 0.00 | 0.00 | 57 | 1017.8 |
| 20260831232506 | 89 | 132 | 2.0 | 9.0 | 0.00 | 0.00 | 0.00 | 57 | 1017.8 |
| 20260831232003 | 89 | 90 | 3.0 | 9.0 | 0.00 | 0.00 | 0.00 | 55 | 1017.8 |
| 20260831231509 | 90 | 90 | 2.0 | 7.0 | 0.00 | 0.00 | 0.00 | 55 | 1017.8 |
| 20260831231004 | 90 | 89 | 3.0 | 6.0 | 0.00 | 0.00 | 0.00 | 54 | 1017.8 |
| 20260831230513 | 90 | 86 | 2.0 | 9.0 | 0.00 | 0.00 | 0.00 | 54 | 1017.7 |
| 20260831230008 | 90 | 95 | 4.0 | 9.0 | 0.00 | 0.00 | 0.00 | 54 | 1017.8 |
| 20260831225506 | 90 | 95 | 3.0 | 9.0 | 0.00 | 0.00 | 0.00 | 53 | 1017.7 |
| 20260831225008 | 90 | 78 | 2.0 | 7.0 | 0.00 | 0.00 | 0.00 | 54 | 1017.6 |
| 20260831224504 | 90 | 88 | 3.0 | 9.0 | 0.00 | 0.00 | 0.00 | 56 | 1017.7 |
| 20260831224010 | 89 | 67 | 2.0 | 9.0 | 0.00 | 0.00 | 0.00 | 56 | 1017.7 |
| 20260831223504 | 89 | 47 | 3.0 | 9.0 | 0.00 | 0.00 | 0.00 | 56 | 1017.7 |
| 20260831223003 | 89 | 84 | 2.0 | 5.0 | 0.00 | 0.00 | 0.00 | 56 | 1017.7 |
| 20260831222505 | 89 | 77 | 3.0 | 5.0 | 0.00 | 0.00 | 0.00 | 55 | 1017.7 |
| 20260831222008 | 89 | 67 | 3.0 | 9.0 | 0.00 | 0.00 | 0.00 | 54 | 1017.7 |
| 20260831221517 | 90 | 80 | 4.0 | 9.0 | 0.00 | 0.00 | 0.00 | 53 | 1017.8 |
| 20260831221005 | 91 | 77 | 5.0 | 9.0 | 0.00 | 0.00 | 0.00 | 51 | 1017.8 |
| 20260831220503 | 92 | 63 | 5.0 | 9.0 | 0.00 | 0.00 | 0.00 | 49 | 1017.8 |
| 20260831220020 | 93 | 111 | 5.0 | 13.0 | 0.00 | 0.00 | 0.00 | 48 | 1017.8 |
| 20260831215509 | 94 | 93 | 5.0 | 13.0 | 0.00 | 0.00 | 0.00 | 47 | 1017.7 |
| 20260831215007 | 94 | 121 | 3.0 | 4.0 | 0.00 | 0.00 | 0.00 | 45 | 1017.7 |
| 20260831214516 | 94 | 272 | 1.0 | 6.0 | 0.00 | 0.00 | 0.00 | 48 | 1017.7 |
| 20260831214006 | 93 | 286 | 1.0 | 7.0 | 0.00 | 0.00 | 0.00 | 48 | 1017.7 |